Orbital Elements at Epoch 2459000.5 (2020-May-31.0) TDB
Reference: JPL 16 (heliocentric ecliptic J2000)
Element | Value | Uncertainty (1-sigma) | Units |
e | .1184519218859738 | 5.8882e-08 | |
a | 3.183270149009604 | 4.7884e-08 | au |
q | 2.806205681977167 | 1.9321e-07 | au |
i | 6.325433109255571 | 6.3863e-06 | deg |
node | 122.6424998294478 | 6.373e-05 | deg |
peri | 163.2675715000328 | 7.2953e-05 | deg |
M | 334.5210652935011 | 3.1645e-05 | deg |
tp | 2459147.320749584670 (2020-Oct-24.82074958) | 0.00018211 | TDB |
period | 2074.477228319884 5.68 | 4.6808e-05 1.282e-07 | d yr |
n | .1735376966714469 | 3.9156e-09 | deg/d |
Q | 3.560334616042042 | 5.3556e-08 | au |
|
| | Orbit Determination Parameters
Additional Information
|